RH
46 37 30 23 12 6 5 5 7 8 6 5 5 6 7 12 11 8 6 6 4 4 3 3 4 4 4 3 3 2 2 2 2 2 2 2 2 2 2 2 3 3 3
46 46 38 33 25 12 6 5 5 5 5 6 6 6 13 12 8 6 5 4 3 3 3 3 3 4 4 3 3 2 2 2 2 2 2 2 2 2 3 3 3 3 3
47 50 47 42 42 36 20 6 5 6 6 10 13 13 12 9 6 5 4 4 3 3 3 4 3 3 4 3 3 2 2 2 2 2 2 2 2 3 3 3 3 3 4
48 53 51 47 47 43 39 22 8 6 6 11 14 12 9 7 5 4 4 3 3 3 3 4 3 3 4 4 3 3 2 2 2 2 2 2 2 3 3 3 4 4 4
52 57 55 49 50 48 40 35 21 9 7 12 15 13 9 6 5 4 4 4 3 3 3 4 3 3 3 4 3 3 2 2 2 2 2 2 3 3 3 3 4 4 4
57 60 58 50 55 51 45 36 33 19 11 13 15 15 11 8 6 4 4 4 3 3 2 3 3 3 3 4 4 3 3 2 2 2 2 3 3 3 3 3 4 4 4
58 59 53 52 60 55 49 45 34 30 18 16 16 15 11 8 7 5 4 4 3 3 2 3 3 3 3 3 4 4 3 2 2 2 2 3 3 3 3 3 4 4 4
54 49 51 54 55 57 51 45 36 36 24 20 18 16 12 8 7 6 5 4 4 3 3 2 4 3 3 3 4 4 3 3 2 2 2 3 3 3 3 4 4 3 3
43 45 44 40 34 37 38 40 38 43 31 26 22 18 14 9 7 7 6 4 4 4 3 2 3 4 3 3 3 4 4 3 2 2 2 2 3 3 3 3 3 3 3
32 29 22 16 13 12 16 24 41 45 42 37 29 23 17 12 8 7 7 6 4 4 4 3 3 4 4 3 3 4 4 4 3 2 2 2 2 3 4 4 4 4 4
19 16 13 12 12 12 11 17 40 46 47 37 39 32 24 17 13 8 7 7 6 4 4 4 3 3 4 3 3 4 4 4 3 3 2 2 2 3 3 3 4 4 4
13 13 11 11 10 9 9 12 22 42 53 46 40 44 34 26 20 16 11 8 8 6 4 4 4 3 4 4 4 4 4 4 4 3 3 3 2 2 2 3 3 3 3
13 10 10 11 10 11 14 11 14 22 42 54 50 42 51 38 29 25 20 14 8 8 6 4 4 3 3 5 4 3 4 5 4 4 3 3 3 3 2 2 2 2 2
12 10 10 11 11 11 17 41 49 28 31 47 58 51 41 53 42 33 30 25 20 12 8 6 4 4 3 4 4 4 4 5 5 4 4 4 3 3 3 3 2 2 3
12 11 11 11 12 11 12 15 47 59 50 52 65 62 62 52 57 52 42 35 31 26 16 8 6 4 4 4 4 4 4 4 5 5 5 4 4 4 3 3 3 3 3
11 11 10 11 11 11 11 12 14 22 43 56 67 64 64 75 67 57 58 51 42 36 27 15 9 6 5 4 4 4 4 4 5 5 5 5 5 4 4 3 3 3 3
10 11 10 10 10 10 10 11 12 12 13 22 54 72 72 71 72 77 72 61 56 48 40 29 14 9 7 5 4 4 4 4 5 6 6 6 5 5 4 4 3 3 3
12 11 11 11 10 10 10 10 10 12 13 13 16 26 55 64 70 75 81 80 68 59 54 44 36 22 10 8 5 5 4 5 5 5 6 6 6 6 5 5 4 3 3
13 11 10 10 10 10 11 11 11 10 12 14 21 31 28 28 41 66 68 64 73 71 68 61 53 47 39 20 9 6 5 4 5 5 6 6 6 6 6 6 5 4 4
10 11 11 10 10 10 10 10 11 11 10 11 15 32 50 29 28 28 55 64 68 86 100 89 73 64 57 52 39 16 8 5 4 5 6 6 7 7 6 6 6 5 4
11 10 10 11 11 11 11 10 10 10 11 12 12 13 15 19 15 21 57 77 79 74 78 99 99 98 74 67 58 56 42 12 6 5 6 6 6 7 7 7 6 6 5
11 11 10 10 10 11 11 11 10 10 11 14 15 14 14 15 14 14 18 23 28 28 42 65 100 97 99 97 81 90 66 52 29 10 5 6 6 7 8 8 7 7 6
10 10 10 10 10 11 11 11 11 11 11 11 11 13 14 14 14 15 17 21 30 39 40 36 55 87 98 90 94 98 90 79 84 62 18 7 6 7 8 9 8 7 7
11 11 11 11 12 11 11 11 12 12 12 12 15 16 15 14 13 13 14 18 20 35 46 38 53 69 80 84 100 95 82 87 83 83 58 34 9 7 8 9 10 8 8
13 12 12 12 12 12 12 11 12 12 12 12 15 17 16 14 13 12 13 16 19 21 38 45 36 44 65 78 75 85 83 96 92 94 93 88 60 11 8 10 10 10 8
14 13 12 11 12 12 12 12 12 12 10 10 13 18 18 16 14 13 12 12 16 19 21 29 33 29 23 30 44 59 96 99 99 100 91 98 94 71 58 14 11 11 10
Wind_Speed
13 13 11 11 10 10 13 15 16 17 16 14 14 16 15 14 12 12 13 13 13 11 10 9 11 11 12 14 14 14 14 16 16 16 18 17 18 18 17 18 19 22 19
13 17 14 12 11 11 11 12 15 16 16 16 15 16 15 13 12 12 13 13 13 12 10 10 10 11 11 12 13 13 14 15 14 15 16 16 16 16 17 18 19 20 18
17 18 16 16 13 12 10 10 11 14 15 17 17 15 13 12 12 12 12 12 12 10 10 10 10 10 10 12 12 13 13 14 13 14 15 15 14 16 17 18 18 19 18
19 17 15 12 11 9 9 10 10 11 13 15 16 15 13 12 13 13 13 12 12 11 9 9 9 9 10 10 11 11 11 11 13 12 14 13 13 16 17 17 15 16 16
21 18 14 11 11 9 9 9 9 11 11 13 13 13 13 12 12 13 13 12 11 10 9 8 7 8 8 8 9 9 8 10 11 11 12 12 11 14 14 15 14 14 13
21 18 14 11 12 11 10 9 9 9 11 11 11 12 11 12 11 13 13 12 11 10 10 9 7 8 7 6 7 7 8 7 8 11 11 10 10 12 12 11 12 12 11
21 17 15 13 13 12 11 9 8 10 10 11 11 12 10 10 11 12 13 13 10 9 9 9 7 7 7 6 4 5 6 5 6 10 10 9 10 11 10 9 8 9 9
19 17 16 15 14 13 12 10 9 10 12 11 11 12 12 10 10 11 12 13 12 10 8 7 7 7 7 6 4 3 4 4 4 7 9 9 9 7 8 6 5 6 7
20 18 17 16 15 15 14 13 12 12 13 13 13 11 11 11 10 10 11 11 11 10 9 8 7 6 6 6 5 3 4 4 3 5 6 7 7 6 4 4 4 4 5
19 19 18 17 15 15 14 14 14 14 13 12 12 11 11 10 9 9 9 10 10 9 8 8 8 8 7 6 5 4 3 3 3 4 4 4 6 5 3 3 2 3 4
18 17 16 16 17 17 16 16 16 16 15 13 13 11 11 11 10 8 8 8 9 9 8 7 8 8 8 8 7 6 3 3 2 2 3 3 3 4 2 1 2 3 3
16 15 14 14 14 16 17 17 17 18 15 12 13 12 11 10 10 9 8 7 8 9 9 8 8 8 8 8 9 8 5 3 3 2 1 1 1 2 0 0 1 2 3
16 15 13 14 14 14 16 17 17 17 16 14 13 14 13 11 11 10 8 8 7 8 8 9 9 8 8 8 10 10 7 4 4 3 2 1 1 0 1 1 2 2 3
18 17 15 15 14 13 14 16 17 16 15 15 15 15 14 13 12 10 9 8 7 7 8 9 11 10 9 10 11 12 9 6 5 3 3 2 2 1 2 2 2 2 2
19 17 16 15 13 12 12 14 16 16 16 16 15 15 11 16 15 12 10 10 9 8 9 10 11 11 11 11 13 13 11 8 7 5 5 4 4 2 3 2 3 3 2
19 18 16 15 14 14 14 13 15 17 16 16 17 16 13 13 14 15 13 12 10 10 10 10 11 12 12 12 12 14 12 9 8 8 6 5 6 3 4 3 4 3 3
20 18 16 16 15 15 14 14 14 15 16 18 17 17 15 15 15 15 16 17 15 13 13 12 11 12 13 13 12 14 13 11 10 9 8 7 7 5 5 4 5 5 4
22 20 20 18 17 16 16 15 15 15 16 17 19 22 21 20 18 17 17 17 18 17 16 15 13 12 13 14 14 13 14 13 13 12 11 10 9 7 7 6 6 6 5
25 24 22 20 19 19 19 18 17 17 18 18 20 20 24 26 23 22 22 20 19 19 19 18 17 16 15 14 15 15 15 15 15 15 15 13 11 11 9 8 7 7 7
28 27 25 24 24 23 23 21 21 22 21 21 23 24 24 23 24 25 23 23 21 20 17 18 18 18 18 17 17 16 17 17 16 16 17 15 14 14 12 11 9 8 8
30 29 28 28 26 25 24 22 22 22 23 23 23 25 27 27 26 24 23 28 26 25 24 25 22 17 23 20 21 19 19 18 18 18 18 17 17 16 15 13 11 10 9
34 32 30 29 29 27 26 24 23 23 24 25 26 26 26 27 28 29 29 30 31 30 30 26 24 25 26 19 20 27 25 20 18 19 20 19 19 18 17 16 14 13 12
34 34 34 34 33 30 28 28 26 27 27 28 28 28 29 30 29 28 29 29 31 31 29 29 29 30 30 26 29 23 24 22 23 23 21 20 20 21 20 19 17 16 15
36 34 34 33 32 32 32 32 29 28 28 26 25 26 28 30 30 29 29 31 32 33 31 29 31 33 38 31 27 25 32 27 32 27 24 21 22 22 23 23 22 20 18
36 35 34 34 35 34 35 35 34 32 31 30 31 31 31 32 31 31 31 32 33 34 34 32 32 34 35 38 37 35 36 32 26 29 31 31 25 24 25 26 26 24 22
39 38 38 39 39 40 40 40 39 37 37 37 35 33 33 32 33 33 33 35 35 36 36 36 34 35 35 36 35 35 36 32 29 29 30 30 27 28 29 28 28 29 28
Wind_Direction
150 128 132 130 123 121 128 132 133 135 134 135 136 136 135 135 138 141 137 134 132 124 110 96 85 79 74 71 68 73 79 78 83 87 88 92 92 91 89 88 88 85 84
157 131 126 127 121 114 121 133 136 136 134 131 131 134 136 137 140 140 139 142 138 125 115 103 89 81 76 73 72 75 78 75 84 92 93 92 90 91 89 86 85 85 82
159 140 132 124 110 108 115 125 134 134 136 136 135 137 139 140 141 140 142 144 135 125 118 106 95 89 78 70 68 71 76 78 85 92 95 95 98 95 88 88 87 87 84
163 155 145 145 137 124 118 122 128 135 140 142 142 143 143 142 144 144 146 148 141 135 128 109 109 99 81 72 67 65 81 86 87 97 98 97 95 94 94 91 90 88 85
167 167 162 158 156 150 140 132 136 137 143 146 146 147 145 146 147 148 151 154 149 142 132 121 117 108 93 75 74 73 78 87 96 96 96 98 98 97 97 99 94 85 82
175 177 177 176 171 161 157 147 146 151 152 155 154 151 153 147 149 152 155 159 157 151 146 139 134 121 111 91 75 72 77 85 95 94 93 94 94 93 96 96 97 90 82
188 186 186 185 179 173 172 168 166 170 169 170 164 162 161 162 157 158 161 162 167 163 156 149 153 141 136 119 97 79 81 93 95 96 94 91 89 94 93 88 84 86 82
194 195 189 189 191 193 194 192 184 184 183 183 180 177 168 171 171 167 172 168 170 174 169 164 163 156 153 144 137 108 80 70 76 98 101 99 96 91 94 92 83 75 76
190 195 201 208 213 215 214 211 201 190 189 193 191 188 179 176 178 180 177 180 180 179 174 177 174 174 172 167 169 161 104 103 124 106 106 105 98 93 86 79 75 67 67
197 205 210 213 215 221 220 211 200 196 197 201 204 196 188 184 183 183 185 187 192 193 187 183 185 188 186 190 195 190 133 132 151 128 112 110 107 108 102 87 49 49 45
202 207 215 213 212 215 218 210 202 200 205 206 207 207 201 193 189 186 186 191 201 203 204 200 199 197 197 203 205 209 181 169 168 147 130 122 106 117 107 66 42 4 20
216 207 215 215 210 210 212 210 207 204 205 207 208 209 210 210 199 195 192 195 199 208 211 211 211 213 206 216 220 214 199 193 182 196 181 143 129 114 159 23 4 346 339
213 214 203 210 211 208 206 206 212 212 205 203 211 212 208 215 214 204 209 208 206 217 217 218 223 221 218 227 233 231 216 206 209 206 227 224 251 31 277 308 321 334 336
206 205 204 210 211 206 202 197 199 208 211 210 217 222 206 210 221 220 219 222 222 227 228 227 229 225 227 227 235 241 230 221 231 225 242 260 278 284 287 299 299 323 321
206 208 201 205 207 210 211 208 206 204 207 211 222 227 214 205 217 221 227 232 230 235 240 239 236 235 230 231 236 240 236 225 232 230 243 256 274 286 286 282 288 287 313
206 205 206 200 203 209 216 215 216 220 215 212 219 228 221 209 212 222 226 238 234 239 243 249 251 247 243 240 242 246 241 231 233 238 242 253 263 270 277 277 275 275 282
208 203 208 204 205 211 219 221 221 224 230 228 224 231 230 228 224 224 222 229 232 235 239 243 253 256 255 251 249 254 246 241 239 245 245 248 261 269 271 272 270 271 269
214 207 206 213 216 220 223 228 229 230 232 236 234 236 237 238 237 235 227 229 234 234 244 243 244 251 256 260 257 256 259 252 247 242 244 247 255 258 263 272 271 271 269
217 217 216 217 221 225 226 229 235 233 234 237 235 237 241 244 241 241 247 244 239 233 239 240 249 253 258 263 266 264 261 257 251 250 246 245 247 251 254 259 263 265 264
218 221 227 224 225 228 228 229 230 238 238 234 236 236 240 248 247 245 246 251 248 248 247 248 245 251 256 261 269 274 269 264 261 258 257 252 251 254 252 253 253 254 257
230 232 231 232 233 235 238 237 240 243 247 246 241 240 240 247 250 249 240 246 247 249 243 244 243 257 255 257 262 268 272 272 269 264 260 256 253 254 255 254 254 253 250
233 236 238 239 236 237 238 239 241 241 240 239 239 241 244 243 245 248 249 249 254 255 252 245 249 247 247 257 266 267 267 267 273 274 270 266 260 257 257 255 253 251 250
230 233 235 238 236 235 237 240 239 243 246 248 247 242 238 241 244 244 247 249 250 253 254 248 250 250 247 246 254 255 267 269 276 274 272 268 264 261 257 256 253 251 247
232 232 234 234 237 241 242 245 246 249 253 256 252 248 245 245 246 246 245 245 246 249 251 251 249 249 245 244 243 251 258 266 265 269 269 273 269 263 260 256 251 246 246
230 232 232 235 239 241 246 251 253 253 254 249 246 243 241 242 244 244 244 245 243 245 248 249 249 252 247 247 248 253 251 257 263 262 264 270 272 270 264 259 255 250 244
230 232 236 240 243 246 248 250 253 255 254 248 244 243 244 246 247 247 245 245 244 243 243 246 248 251 254 253 251 250 244 253 250 257 259 261 261 265 270 267 258 254 249